When you browse on this site, cookies collect data to enhance your experience and personalize the content and advertising you see.
Visit our Privacy Policy to learn more. By continuing to use the site, you agree to this use of cookies and data.
  • En España
  • Lista de países
  • Para 7 días
  • Temperatura del agua
  • Mapa Satelital
  • El tiempo en el mapa
  • Informadores
  • user-avatar
    Iniciar sesión

    Tiempo cada hora Galata

    Hoy, 20 Noviembre, Martes

    Tiempo Temperatura Precipitaciones Viento Presión Humedad
    00:00 0°C° 0 mm 4 mps 759 mmHg 89%
    01:00 0°C° 0 mm 4 mps 759 mmHg 89%
    02:00 +1°C° 0 mm 3 mps 759 mmHg 89%
    03:00 +1°C° 0 mm 3 mps 759 mmHg 89%
    04:00 +1°C° 0 mm 3 mps 760 mmHg 89%
    05:00 +1°C° 0 mm 3 mps 760 mmHg 89%
    06:00 0°C° 0 mm 4 mps 760 mmHg 88%
    07:00 0°C° 0 mm 4 mps 760 mmHg 87%
    08:00 0°C° 0 mm 4 mps 761 mmHg 84%
    09:00 +1°C° 0 mm 4 mps 761 mmHg 78%
    10:00 +3°C° 0 mm 3 mps 761 mmHg 72%
    11:00 +4°C° 0 mm 3 mps 761 mmHg 67%
    12:00 +5°C° 0 mm 3 mps 761 mmHg 65%
    13:00 +5°C° 0 mm 3 mps 760 mmHg 64%
    14:00 +7°C° 0 mm 3 mps 760 mmHg 62%
    15:00 +6°C° 0 mm 4 mps 760 mmHg 66%
    16:00 +6°C° 0 mm 4 mps 760 mmHg 70%
    17:00 +5°C° 0 mm 4 mps 759 mmHg 74%
    18:00 +5°C° 0.1 mm 4 mps 759 mmHg 77%
    19:00 +5°C° 0.1 mm 4 mps 759 mmHg 80%
    20:00 +5°C° 0.1 mm 5 mps 759 mmHg 83%
    21:00 +6°C° 0.4 mm 5 mps 759 mmHg 85%
    22:00 +6°C° 0.4 mm 5 mps 758 mmHg 87%
    23:00 +6°C° 0.4 mm 5 mps 758 mmHg 89%

    Mañana, 21 Noviembre, Miércoles

    Tiempo Temperatura Precipitaciones Viento Presión Humedad
    00:00 +5°C° 1 mm 6 mps 758 mmHg 91%
    01:00 +5°C° 1 mm 6 mps 758 mmHg 92%
    02:00 +7°C° 1 mm 6 mps 757 mmHg 93%
    03:00 +7°C° 1 mm 6 mps 757 mmHg 94%
    04:00 +7°C° 1 mm 6 mps 756 mmHg 94%
    05:00 +7°C° 1 mm 6 mps 756 mmHg 94%
    06:00 +6°C° 1.2 mm 7 mps 755 mmHg 95%
    07:00 +6°C° 1.2 mm 7 mps 755 mmHg 95%
    08:00 +8°C° 1.2 mm 7 mps 755 mmHg 95%
    09:00 +8°C° 1.4 mm 7 mps 755 mmHg 94%
    10:00 +8°C° 1.4 mm 7 mps 755 mmHg 94%
    11:00 +8°C° 1.4 mm 7 mps 755 mmHg 94%
    12:00 +8°C° 1.3 mm 7 mps 755 mmHg 93%
    13:00 +8°C° 1.3 mm 7 mps 754 mmHg 93%
    14:00 +7°C° 1.3 mm 8 mps 754 mmHg 93%
    15:00 +7°C° 0.9 mm 8 mps 754 mmHg 92%
    16:00 +7°C° 0.9 mm 8 mps 754 mmHg 92%
    17:00 +7°C° 0.9 mm 8 mps 754 mmHg 92%
    18:00 +7°C° 0.5 mm 8 mps 754 mmHg 91%
    19:00 +7°C° 0.5 mm 9 mps 755 mmHg 91%
    20:00 +7°C° 0.5 mm 9 mps 755 mmHg 90%
    21:00 +7°C° 0.5 mm 9 mps 755 mmHg 90%
    22:00 +7°C° 0.5 mm 9 mps 755 mmHg 90%
    23:00 +6°C° 0.5 mm 9 mps 756 mmHg 89%

    Pasado mañana, 22 Noviembre, Jueves

    Tiempo Temperatura Precipitaciones Viento Presión Humedad
    00:00 +6°C° 0.6 mm 9 mps 756 mmHg 89%
    01:00 +6°C° 0.6 mm 9 mps 756 mmHg 89%
    02:00 +6°C° 0.6 mm 9 mps 756 mmHg 89%
    03:00 +6°C° 0.4 mm 9 mps 757 mmHg 88%
    04:00 +5°C° 0.4 mm 9 mps 757 mmHg 88%
    05:00 +5°C° 0.4 mm 9 mps 757 mmHg 87%
    06:00 +5°C° 0.3 mm 9 mps 758 mmHg 86%
    07:00 +5°C° 0.3 mm 9 mps 758 mmHg 85%
    08:00 +4°C° 0.3 mm 8 mps 759 mmHg 85%
    09:00 +4°C° 0.1 mm 8 mps 759 mmHg 83%
    10:00 +4°C° 0.1 mm 8 mps 759 mmHg 81%
    11:00 +4°C° 0.1 mm 8 mps 760 mmHg 79%
    12:00 +5°C° 0 mm 8 mps 760 mmHg 77%
    13:00 +5°C° 0 mm 7 mps 760 mmHg 75%
    14:00 +5°C° 0 mm 7 mps 760 mmHg 73%
    15:00 +5°C° 0 mm 7 mps 760 mmHg 74%
    16:00 +4°C° 0 mm 6 mps 761 mmHg 75%
    17:00 +3°C° 0 mm 6 mps 761 mmHg 75%
    18:00 +3°C° 0 mm 6 mps 761 mmHg 75%
    19:00 +2°C° 0 mm 6 mps 762 mmHg 75%
    20:00 +2°C° 0 mm 5 mps 762 mmHg 74%
    21:00 +1°C° 0 mm 5 mps 762 mmHg 74%
    22:00 +1°C° 0 mm 5 mps 762 mmHg 74%
    23:00 +1°C° 0 mm 5 mps 763 mmHg 74%

    23 Noviembre, Viernes

    Tiempo Temperatura Precipitaciones Viento Presión Humedad
    00:00 0°C° 0 mm 5 mps 763 mmHg 75%
    01:00 0°C° 0 mm 5 mps 763 mmHg 76%
    02:00 -1°C° 0 mm 5 mps 763 mmHg 76%
    03:00 -1°C° 0 mm 5 mps 763 mmHg 77%
    04:00 -1°C° 0 mm 5 mps 763 mmHg 78%
    05:00 -2°C° 0 mm 5 mps 763 mmHg 78%
    06:00 -2°C° 0 mm 5 mps 764 mmHg 78%
    07:00 -2°C° 0 mm 4 mps 764 mmHg 78%
    08:00 -2°C° 0 mm 4 mps 764 mmHg 77%
    09:00 0°C° 0 mm 4 mps 765 mmHg 70%
    10:00 +1°C° 0 mm 4 mps 765 mmHg 63%
    11:00 +3°C° 0 mm 4 mps 765 mmHg 56%
    12:00 +4°C° 0 mm 4 mps 765 mmHg 54%
    13:00 +5°C° 0 mm 4 mps 765 mmHg 52%
    14:00 +5°C° 0 mm 4 mps 765 mmHg 50%
    15:00 +5°C° 0 mm 4 mps 765 mmHg 53%
    16:00 +4°C° 0 mm 4 mps 765 mmHg 56%
    17:00 +3°C° 0 mm 4 mps 765 mmHg 60%
    18:00 +1°C° 0 mm 4 mps 765 mmHg 61%
    19:00 +1°C° 0 mm 4 mps 766 mmHg 63%
    20:00 +1°C° 0 mm 3 mps 766 mmHg 64%
    21:00 +1°C° 0 mm 3 mps 766 mmHg 65%
    22:00 +1°C° 0 mm 3 mps 766 mmHg 65%
    23:00 +1°C° 0 mm 3 mps 766 mmHg 65%

    24 Noviembre, Sábado

    Tiempo Temperatura Precipitaciones Viento Presión Humedad
    00:00 +1°C° 0 mm 3 mps 766 mmHg 66%
    01:00 0°C° 0 mm 3 mps 766 mmHg 66%
    02:00 0°C° 0 mm 3 mps 765 mmHg 66%
    03:00 0°C° 0 mm 3 mps 765 mmHg 67%
    04:00 0°C° 0 mm 3 mps 765 mmHg 67%
    05:00 0°C° 0 mm 3 mps 765 mmHg 68%
    06:00 0°C° 0 mm 3 mps 765 mmHg 68%
    07:00 +1°C° 0 mm 3 mps 765 mmHg 68%
    08:00 +2°C° 0 mm 2 mps 765 mmHg 68%
    09:00 +3°C° 0 mm 2 mps 765 mmHg 67%
    10:00 +5°C° 0 mm 2 mps 764 mmHg 66%
    11:00 +6°C° 0 mm 2 mps 764 mmHg 65%
    12:00 +7°C° 0 mm 2 mps 764 mmHg 65%
    13:00 +8°C° 0 mm 2 mps 763 mmHg 66%
    14:00 +8°C° 0 mm 2 mps 762 mmHg 66%
    15:00 +7°C° 0 mm 2 mps 762 mmHg 72%
    16:00 +7°C° 0 mm 2 mps 762 mmHg 77%
    17:00 +7°C° 0 mm 1 mps 762 mmHg 83%
    18:00 +7°C° 0 mm 1 mps 762 mmHg 84%
    19:00 +6°C° 0 mm 1 mps 762 mmHg 85%
    20:00 +6°C° 0 mm 1 mps 762 mmHg 87%
    21:00 +6°C° 0 mm 1 mps 761 mmHg 87%
    22:00 +6°C° 0 mm 1 mps 761 mmHg 88%
    23:00 +5°C° 0 mm 2 mps 761 mmHg 89%

    25 Noviembre, Domingo

    Tiempo Temperatura Precipitaciones Viento Presión Humedad
    00:00 +5°C° 0 mm 2 mps 760 mmHg 89%
    01:00 +5°C° 0 mm 2 mps 760 mmHg 89%
    02:00 +5°C° 0 mm 2 mps 760 mmHg 89%
    03:00 +5°C° 0 mm 2 mps 759 mmHg 89%
    04:00 +5°C° 0 mm 2 mps 759 mmHg 89%
    05:00 +4°C° 0 mm 2 mps 759 mmHg 89%
    06:00 +4°C° 0 mm 2 mps 758 mmHg 89%
    07:00 +3°C° 0 mm 3 mps 758 mmHg 89%
    08:00 +3°C° 0 mm 3 mps 758 mmHg 88%
    09:00 +5°C° 0 mm 3 mps 758 mmHg 80%
    10:00 +7°C° 0 mm 3 mps 758 mmHg 72%
    11:00 +8°C° 0 mm 4 mps 757 mmHg 65%
    12:00 +10°C° 0 mm 4 mps 757 mmHg 62%
    13:00 +10°C° 0 mm 4 mps 756 mmHg 59%
    14:00 +11°C° 0 mm 4 mps 756 mmHg 56%
    15:00 +10°C° 0 mm 4 mps 755 mmHg 61%
    16:00 +8°C° 0 mm 4 mps 755 mmHg 65%
    17:00 +8°C° 0 mm 3 mps 755 mmHg 70%
    18:00 +8°C° 0 mm 3 mps 755 mmHg 72%
    19:00 +8°C° 0 mm 3 mps 755 mmHg 73%
    20:00 +7°C° 0 mm 3 mps 754 mmHg 75%
    21:00 +7°C° 0 mm 3 mps 754 mmHg 76%
    22:00 +7°C° 0 mm 3 mps 754 mmHg 76%
    23:00 +7°C° 0 mm 3 mps 754 mmHg 77%
    Mostrar más